DAL170 RKSI-KMSP

Flight info

Callsign DAL170
Flight time N/A
Altitude 35000
Route EGOBA2Y EGOBA Y697 LANAT Y51 SAMON Y142 GTC Y512 ADNAP OTR5 KALNA/N0488F370 DCT 45N160E 49N170E 52N180W/N0486F390 54N170W DCT DUT DCT 53N160W 52N150W 51N140W DCT ORNAI/N0478F410 DCT SEFIX DCT TOU DCT PAE DCT GEG J136 HILIE DCT KU12M DCT HEXOL DCT BAZLT DCT RECAP DCT DPR DCT UFFDA TORGY4
Aircraft A359/H-SDE2E3GHIJ3J4J5LM1ORWXY/LB1D1

Departure

Time N/A
Airport Incheon International Airport (RKSI)

Arrival

Time 2026-05-03 23:09
Airport Minneapolis–Saint Paul International Airport / Wold–Chamberlain Field (KMSP)
Time Latitude Longitude Altitude Speed Heading
2026-05-03 20:15 48.25135 -124.30766 40983 ft 460 kts 97°
2026-05-03 20:15 48.23697 -124.21405 40990 ft 460 kts 97°
2026-05-03 20:16 48.22253 -124.12062 40989 ft 460 kts 97°
2026-05-03 20:16 48.20797 -124.02727 40996 ft 460 kts 97°
2026-05-03 20:17 48.19334 -123.93394 41004 ft 460 kts 97°
2026-05-03 20:17 48.17862 -123.84050 41012 ft 461 kts 97°
2026-05-03 20:18 48.16392 -123.74775 41017 ft 462 kts 97°
2026-05-03 20:18 48.14889 -123.65340 41017 ft 462 kts 98°
2026-05-03 20:19 48.13385 -123.55961 41022 ft 463 kts 98°
2026-05-03 20:19 48.11874 -123.46584 41021 ft 464 kts 98°
2026-05-03 20:20 48.10351 -123.37181 41008 ft 465 kts 98°
2026-05-03 20:20 48.08819 -123.27779 41012 ft 466 kts 98°
2026-05-03 20:21 48.07274 -123.18355 40995 ft 467 kts 98°
2026-05-03 20:21 48.05719 -123.08919 40972 ft 468 kts 98°
2026-05-03 20:22 48.04152 -122.99471 40969 ft 469 kts 98°
2026-05-03 20:22 48.02586 -122.90071 40963 ft 469 kts 99°
2026-05-03 20:23 48.00990 -122.80551 40981 ft 470 kts 99°
2026-05-03 20:23 47.99404 -122.71135 40970 ft 471 kts 99°
2026-05-03 20:24 47.97797 -122.61651 40968 ft 472 kts 99°
2026-05-03 20:24 47.96183 -122.52177 40990 ft 472 kts 99°
2026-05-03 20:25 47.94555 -122.42673 41008 ft 473 kts 99°
2026-05-03 20:25 47.92917 -122.33164 41009 ft 474 kts 99°
2026-05-03 20:26 47.91773 -122.23570 41010 ft 468 kts 91°
2026-05-03 20:26 47.91163 -122.13907 41007 ft 468 kts 90°
2026-05-03 20:27 47.90630 -122.04242 41007 ft 469 kts 90°
2026-05-03 20:27 47.90086 -121.94555 41005 ft 469 kts 90°
2026-05-03 20:28 47.89522 -121.84895 41003 ft 470 kts 91°
2026-05-03 20:28 47.88941 -121.75194 41003 ft 470 kts 91°
2026-05-03 20:29 47.88350 -121.65488 41002 ft 471 kts 91°
2026-05-03 20:29 47.87751 -121.55776 40998 ft 471 kts 91°
2026-05-03 20:30 47.87142 -121.46050 40998 ft 471 kts 91°
2026-05-03 20:30 47.86533 -121.36380 40997 ft 472 kts 91°
2026-05-03 20:31 47.85910 -121.26666 40997 ft 473 kts 91°
2026-05-03 20:31 47.85273 -121.16909 40991 ft 473 kts 91°
2026-05-03 20:32 47.84632 -121.07171 40996 ft 473 kts 91°
2026-05-03 20:32 47.83980 -120.97413 40978 ft 474 kts 91°
2026-05-03 20:33 47.83322 -120.87660 40976 ft 474 kts 92°
2026-05-03 20:33 47.82655 -120.77901 40970 ft 474 kts 92°
2026-05-03 20:34 47.81977 -120.68131 40964 ft 475 kts 92°
2026-05-03 20:34 47.81289 -120.58360 40961 ft 475 kts 92°
2026-05-03 20:35 47.80595 -120.48585 40955 ft 475 kts 92°
2026-05-03 20:35 47.79887 -120.38803 40954 ft 475 kts 92°
2026-05-03 20:36 47.79177 -120.29030 40956 ft 476 kts 92°
2026-05-03 20:36 47.78463 -120.19306 40955 ft 476 kts 92°
2026-05-03 20:37 47.77734 -120.09530 40959 ft 476 kts 92°
2026-05-03 20:37 47.76996 -119.99740 40953 ft 476 kts 93°
2026-05-03 20:38 47.76249 -119.89959 40947 ft 477 kts 93°
2026-05-03 20:38 47.75494 -119.80169 40950 ft 477 kts 93°
2026-05-03 20:39 47.74729 -119.70359 40947 ft 478 kts 93°
2026-05-03 20:39 47.73955 -119.60561 40955 ft 478 kts 93°
2026-05-03 20:40 47.73174 -119.50757 40948 ft 478 kts 93°
2026-05-03 20:40 47.72383 -119.40948 40953 ft 478 kts 93°
2026-05-03 20:41 47.71582 -119.31136 40957 ft 479 kts 93°
2026-05-03 20:41 47.70773 -119.21321 40950 ft 479 kts 94°
2026-05-03 20:42 47.69956 -119.11512 40956 ft 479 kts 94°
2026-05-03 20:42 47.69130 -119.01703 40955 ft 479 kts 94°
2026-05-03 20:43 47.68301 -118.91943 40955 ft 480 kts 94°
2026-05-03 20:43 47.67458 -118.82129 40956 ft 480 kts 94°
2026-05-03 20:44 47.66605 -118.72311 40955 ft 480 kts 94°
2026-05-03 20:44 47.65743 -118.62487 40950 ft 480 kts 94°
2026-05-03 20:45 47.64873 -118.52665 40956 ft 480 kts 94°
2026-05-03 20:45 47.63995 -118.42851 40960 ft 481 kts 94°
2026-05-03 20:46 47.63107 -118.33024 40957 ft 481 kts 94°
2026-05-03 20:46 47.62210 -118.23189 40960 ft 481 kts 94°
2026-05-03 20:47 47.61305 -118.13357 40967 ft 482 kts 94°
2026-05-03 20:47 47.60392 -118.03538 40975 ft 482 kts 95°
2026-05-03 20:48 47.59467 -117.93682 40988 ft 482 kts 95°
2026-05-03 20:48 47.58535 -117.83853 41002 ft 482 kts 95°
2026-05-03 20:49 47.57593 -117.74014 41009 ft 482 kts 95°
2026-05-03 20:49 47.56651 -117.64254 41009 ft 483 kts 95°
2026-05-03 20:50 47.55897 -117.54397 41007 ft 481 kts 90°
2026-05-03 20:50 47.55533 -117.44606 41007 ft 481 kts 90°
2026-05-03 20:51 47.55157 -117.34630 40993 ft 481 kts 90°
2026-05-03 20:51 47.54707 -117.24756 40996 ft 481 kts 91°
2026-05-03 20:52 47.54216 -117.14863 40995 ft 482 kts 91°
2026-05-03 20:52 47.53712 -117.04972 40998 ft 482 kts 91°
2026-05-03 20:53 47.53202 -116.95081 41010 ft 482 kts 91°
2026-05-03 20:53 47.52685 -116.85176 41009 ft 483 kts 91°
2026-05-03 20:54 47.52160 -116.75280 41003 ft 483 kts 91°
2026-05-03 20:54 47.50346 -116.60583 40980 ft 487 kts 102°
2026-05-03 20:55 47.48604 -116.50891 40963 ft 488 kts 102°
2026-05-03 20:55 47.46831 -116.41275 40953 ft 488 kts 102°
2026-05-03 20:56 47.45052 -116.31589 40944 ft 488 kts 102°
2026-05-03 20:56 47.43274 -116.21907 40930 ft 488 kts 102°
2026-05-03 20:57 47.41491 -116.12228 40918 ft 488 kts 102°
2026-05-03 20:57 47.39701 -116.02560 40911 ft 488 kts 102°
2026-05-03 20:58 47.37902 -115.92899 40896 ft 488 kts 103°
2026-05-03 20:58 47.36095 -115.83243 40882 ft 489 kts 103°
2026-05-03 20:59 47.34275 -115.73576 40876 ft 489 kts 103°
2026-05-03 20:59 47.32448 -115.63922 40875 ft 489 kts 103°
2026-05-03 21:00 47.31221 -115.57465 40873 ft 489 kts 103°
2026-05-03 21:00 47.29081 -115.46244 40880 ft 489 kts 103°
2026-05-03 21:01 47.27231 -115.36600 40889 ft 490 kts 103°
2026-05-03 21:01 47.25372 -115.26960 40894 ft 490 kts 103°
2026-05-03 21:02 47.23504 -115.17323 40891 ft 490 kts 103°
2026-05-03 21:02 47.21628 -115.07693 40897 ft 490 kts 104°
2026-05-03 21:03 47.19747 -114.98072 40902 ft 489 kts 104°
2026-05-03 21:03 47.17853 -114.88455 40904 ft 490 kts 104°
2026-05-03 21:04 47.15950 -114.78843 40906 ft 490 kts 104°
2026-05-03 21:04 47.14039 -114.69226 40917 ft 490 kts 104°
2026-05-03 21:05 47.12121 -114.59619 40922 ft 490 kts 104°
2026-05-03 21:05 47.10194 -114.50022 40927 ft 490 kts 104°
2026-05-03 21:06 47.08256 -114.40416 40945 ft 491 kts 104°
2026-05-03 21:06 47.06310 -114.30816 40943 ft 491 kts 104°
2026-05-03 21:07 47.04357 -114.21223 40951 ft 491 kts 104°
2026-05-03 21:07 47.02397 -114.11641 40954 ft 491 kts 104°
2026-05-03 21:08 47.00448 -114.02109 40955 ft 491 kts 103°
2026-05-03 21:08 46.99045 -113.92343 40969 ft 490 kts 98°
2026-05-03 21:09 46.97822 -113.82532 40967 ft 490 kts 98°
2026-05-03 21:09 46.96615 -113.72704 40963 ft 490 kts 98°
2026-05-03 21:10 46.95393 -113.62893 40956 ft 490 kts 98°
2026-05-03 21:10 46.94157 -113.53094 40953 ft 490 kts 98°
2026-05-03 21:11 46.92907 -113.43291 40952 ft 490 kts 98°
2026-05-03 21:11 46.91648 -113.33486 40955 ft 491 kts 98°
2026-05-03 21:12 46.90380 -113.23680 40954 ft 491 kts 98°
2026-05-03 21:12 46.89103 -113.13861 40948 ft 491 kts 98°
2026-05-03 21:13 46.87821 -113.04058 40952 ft 491 kts 99°
2026-05-03 21:13 46.86528 -112.94270 40952 ft 491 kts 99°
2026-05-03 21:14 46.85226 -112.84470 40950 ft 491 kts 99°
2026-05-03 21:14 46.83916 -112.74676 40952 ft 491 kts 99°
2026-05-03 21:15 46.82605 -112.64945 40955 ft 492 kts 99°
2026-05-03 21:15 46.81266 -112.55077 40950 ft 492 kts 99°
2026-05-03 21:16 46.79937 -112.45342 40949 ft 492 kts 99°
2026-05-03 21:16 46.78591 -112.35550 40950 ft 492 kts 99°
2026-05-03 21:17 46.77456 -112.27343 40947 ft 492 kts 99°
2026-05-03 21:17 46.75874 -112.15969 40951 ft 493 kts 99°
2026-05-03 21:18 46.74500 -112.06172 40955 ft 493 kts 99°
2026-05-03 21:18 46.73118 -111.96384 40959 ft 493 kts 99°
2026-05-03 21:19 46.71728 -111.86599 40960 ft 493 kts 99°
2026-05-03 21:19 46.70327 -111.76804 40948 ft 494 kts 99°
2026-05-03 21:20 46.68918 -111.67014 40943 ft 494 kts 100°
2026-05-03 21:20 46.67500 -111.57227 40936 ft 494 kts 100°
2026-05-03 21:21 46.66083 -111.47503 40931 ft 494 kts 100°
2026-05-03 21:21 46.64647 -111.37717 40925 ft 494 kts 100°
2026-05-03 21:22 46.63203 -111.27933 40929 ft 495 kts 100°
2026-05-03 21:22 46.61750 -111.18148 40924 ft 495 kts 100°
2026-05-03 21:23 46.60229 -111.08385 40931 ft 496 kts 102°
2026-05-03 21:23 46.58516 -110.98654 40933 ft 496 kts 103°
2026-05-03 21:24 46.56785 -110.88946 40935 ft 496 kts 102°
2026-05-03 21:24 46.55075 -110.79227 40933 ft 497 kts 102°
2026-05-03 21:25 46.53370 -110.69497 40933 ft 497 kts 102°
2026-05-03 21:25 46.51659 -110.59775 40937 ft 497 kts 102°
2026-05-03 21:26 46.49935 -110.50038 40926 ft 498 kts 102°
2026-05-03 21:26 46.48204 -110.40315 40923 ft 498 kts 103°
2026-05-03 21:27 46.46462 -110.30591 40909 ft 498 kts 103°
2026-05-03 21:27 46.44712 -110.20877 40901 ft 498 kts 103°
2026-05-03 21:28 46.42957 -110.11183 40898 ft 498 kts 103°
2026-05-03 21:28 46.41191 -110.01473 40891 ft 498 kts 103°
2026-05-03 21:29 46.39414 -109.91765 40881 ft 498 kts 103°
2026-05-03 21:29 46.37631 -109.82069 40872 ft 498 kts 103°
2026-05-03 21:30 46.35850 -109.72439 40868 ft 499 kts 103°
2026-05-03 21:30 46.34048 -109.62742 40852 ft 499 kts 103°
2026-05-03 21:31 46.32238 -109.53051 40852 ft 499 kts 103°
2026-05-03 21:31 46.30418 -109.43362 40850 ft 499 kts 103°
2026-05-03 21:32 46.28589 -109.33671 40862 ft 499 kts 103°
2026-05-03 21:32 46.26753 -109.23994 40852 ft 500 kts 104°
2026-05-03 21:33 46.25106 -109.14247 40856 ft 499 kts 101°
2026-05-03 21:33 46.23626 -109.04445 40853 ft 499 kts 101°
2026-05-03 21:34 46.22114 -108.94654 40854 ft 500 kts 101°
2026-05-03 21:34 46.20556 -108.84878 40852 ft 500 kts 101°
2026-05-03 21:35 46.18972 -108.75093 40851 ft 500 kts 101°
2026-05-03 21:35 46.17382 -108.65323 40857 ft 501 kts 101°
2026-05-03 21:36 46.15782 -108.55540 40865 ft 501 kts 101°
2026-05-03 21:36 46.14175 -108.45765 40868 ft 502 kts 102°
2026-05-03 21:37 46.12567 -108.36038 40872 ft 502 kts 102°
2026-05-03 21:37 46.10939 -108.26252 40870 ft 502 kts 102°
2026-05-03 21:38 46.09302 -108.16460 40874 ft 503 kts 102°
2026-05-03 21:38 46.07655 -108.06671 40873 ft 503 kts 102°
2026-05-03 21:39 46.06000 -107.96887 40875 ft 503 kts 102°
2026-05-03 21:39 46.04333 -107.87091 40877 ft 504 kts 102°
2026-05-03 21:40 46.02659 -107.77308 40877 ft 504 kts 102°
2026-05-03 21:40 46.00974 -107.67513 40873 ft 504 kts 102°
2026-05-03 21:41 45.99282 -107.57733 40872 ft 504 kts 102°
2026-05-03 21:41 45.97579 -107.47946 40874 ft 505 kts 102°
2026-05-03 21:42 45.95867 -107.38157 40876 ft 505 kts 102°
2026-05-03 21:42 45.94146 -107.28374 40879 ft 505 kts 102°
2026-05-03 21:43 45.92414 -107.18582 40878 ft 506 kts 102°
2026-05-03 21:43 45.90673 -107.08794 40878 ft 506 kts 102°
2026-05-03 21:44 45.88922 -106.98998 40877 ft 507 kts 102°
2026-05-03 21:44 45.87162 -106.89208 40877 ft 507 kts 103°
2026-05-03 21:45 45.85393 -106.79415 40875 ft 507 kts 103°
2026-05-03 21:45 45.83614 -106.69624 40869 ft 508 kts 103°
2026-05-03 21:46 45.81824 -106.59831 40867 ft 508 kts 103°
2026-05-03 21:46 45.80037 -106.50096 40867 ft 508 kts 103°
2026-05-03 21:47 45.78217 -106.40243 40856 ft 509 kts 103°
2026-05-03 21:47 45.76413 -106.30519 40858 ft 509 kts 103°
2026-05-03 21:48 45.74585 -106.20722 40859 ft 509 kts 103°
2026-05-03 21:48 45.72749 -106.10928 40852 ft 510 kts 103°
2026-05-03 21:49 45.70903 -106.01134 40855 ft 510 kts 103°
2026-05-03 21:49 45.69046 -105.91336 40852 ft 510 kts 104°
2026-05-03 21:50 45.67180 -105.81536 40854 ft 511 kts 104°
2026-05-03 21:50 45.65621 -105.73396 40855 ft 511 kts 104°
2026-05-03 21:51 45.63738 -105.63603 40854 ft 511 kts 104°
2026-05-03 21:51 45.61847 -105.53816 40855 ft 511 kts 104°
2026-05-03 21:52 45.59948 -105.44035 40857 ft 511 kts 104°
2026-05-03 21:52 45.58037 -105.34251 40857 ft 512 kts 104°
2026-05-03 21:53 45.56117 -105.24466 40860 ft 512 kts 104°
2026-05-03 21:53 45.54191 -105.14696 40862 ft 512 kts 104°
2026-05-03 21:54 45.52254 -105.04922 40865 ft 512 kts 104°
2026-05-03 21:54 45.50308 -104.95153 40867 ft 512 kts 104°
2026-05-03 21:55 45.48354 -104.85393 40867 ft 512 kts 104°
2026-05-03 21:55 45.46390 -104.75631 40870 ft 513 kts 105°
2026-05-03 21:56 45.44444 -104.65863 40867 ft 512 kts 102°
2026-05-03 21:56 45.43153 -104.55904 40868 ft 511 kts 98°
2026-05-03 21:57 45.42031 -104.45908 40874 ft 512 kts 97°
2026-05-03 21:57 45.40924 -104.35906 40860 ft 512 kts 97°
2026-05-03 21:58 45.39798 -104.25902 40865 ft 512 kts 97°
2026-05-03 21:58 45.38656 -104.15897 40864 ft 512 kts 98°
2026-05-03 21:59 45.37501 -104.05896 40860 ft 513 kts 98°
2026-05-03 21:59 45.36338 -103.95893 40860 ft 512 kts 98°
2026-05-03 22:00 45.35168 -103.85902 40855 ft 513 kts 98°
2026-05-03 22:00 45.33987 -103.75904 40853 ft 513 kts 98°
2026-05-03 22:01 45.32806 -103.65983 40848 ft 513 kts 98°
2026-05-03 22:01 45.31605 -103.55964 40848 ft 513 kts 98°
2026-05-03 22:02 45.30397 -103.45964 40845 ft 513 kts 98°
2026-05-03 22:02 45.29180 -103.35976 40847 ft 514 kts 98°
2026-05-03 22:03 45.27953 -103.25977 40845 ft 514 kts 98°
2026-05-03 22:03 45.26719 -103.15989 40851 ft 514 kts 98°
2026-05-03 22:04 45.25474 -103.05998 40851 ft 514 kts 98°
2026-05-03 22:04 45.24220 -102.96002 40851 ft 514 kts 98°
2026-05-03 22:05 45.22958 -102.86015 40859 ft 515 kts 98°
2026-05-03 22:05 45.21686 -102.76025 40853 ft 515 kts 98°
2026-05-03 22:06 45.20416 -102.66124 40855 ft 515 kts 99°
2026-05-03 22:06 45.19127 -102.56145 40856 ft 515 kts 99°
2026-05-03 22:07 45.17828 -102.46159 40863 ft 515 kts 99°
2026-05-03 22:07 45.16520 -102.36176 40861 ft 516 kts 99°
2026-05-03 22:08 45.15209 -102.26238 40871 ft 516 kts 99°
2026-05-03 22:08 45.13882 -102.16253 40869 ft 516 kts 99°
2026-05-03 22:09 45.12546 -102.06274 40874 ft 516 kts 99°
2026-05-03 22:10 45.10525 -101.91300 40873 ft 516 kts 99°
2026-05-03 22:10 45.09164 -101.81308 40869 ft 517 kts 99°
2026-05-03 22:11 45.07796 -101.71326 40871 ft 517 kts 99°
2026-05-03 22:11 45.06895 -101.61259 40866 ft 515 kts 93°
2026-05-03 22:12 45.06175 -101.51173 40861 ft 516 kts 94°
2026-05-03 22:12 45.05391 -101.41076 40866 ft 516 kts 94°
2026-05-03 22:13 45.04579 -101.30984 40861 ft 517 kts 94°
2026-05-03 22:13 45.03753 -101.20897 40860 ft 517 kts 94°
2026-05-03 22:14 45.02916 -101.10800 40860 ft 517 kts 94°
2026-05-03 22:14 45.02069 -101.00703 40859 ft 517 kts 94°
2026-05-03 22:15 45.01212 -100.90613 40853 ft 518 kts 94°
2026-05-03 22:15 45.00347 -100.80515 40854 ft 518 kts 95°
2026-05-03 22:16 44.99478 -100.70485 40854 ft 518 kts 95°
2026-05-03 22:16 44.98593 -100.60385 40852 ft 518 kts 95°
2026-05-03 22:17 44.97699 -100.50272 40852 ft 518 kts 95°
2026-05-03 22:17 44.96796 -100.40166 40851 ft 519 kts 95°
2026-05-03 22:18 44.95883 -100.30060 40851 ft 519 kts 95°
2026-05-03 22:18 44.94962 -100.19960 40850 ft 519 kts 95°
2026-05-03 22:19 44.94032 -100.09865 40851 ft 519 kts 95°
2026-05-03 22:19 44.93091 -99.99756 40849 ft 519 kts 95°
2026-05-03 22:20 44.92142 -99.89650 40855 ft 520 kts 95°
2026-05-03 22:20 44.91184 -99.79541 40861 ft 520 kts 95°
2026-05-03 22:21 44.90216 -99.69431 40858 ft 520 kts 95°
2026-05-03 22:21 44.89245 -99.59389 40861 ft 520 kts 95°
2026-05-03 22:22 44.88260 -99.49292 40859 ft 520 kts 95°
2026-05-03 22:22 44.87263 -99.39176 40856 ft 521 kts 95°
2026-05-03 22:23 44.86258 -99.29061 40861 ft 521 kts 95°
2026-05-03 22:23 44.85243 -99.18949 40855 ft 521 kts 95°
2026-05-03 22:24 44.84220 -99.08848 40854 ft 521 kts 96°
2026-05-03 22:24 44.83189 -98.98749 40854 ft 521 kts 96°
2026-05-03 22:25 44.82147 -98.88650 40851 ft 521 kts 96°
2026-05-03 22:25 44.81098 -98.78562 40847 ft 521 kts 96°
2026-05-03 22:26 44.80038 -98.68460 40846 ft 521 kts 96°
2026-05-03 22:26 44.78970 -98.58367 40846 ft 521 kts 96°
2026-05-03 22:27 44.77893 -98.48276 40847 ft 521 kts 96°
2026-05-03 22:27 44.76806 -98.38185 40845 ft 522 kts 96°
2026-05-03 22:28 44.75719 -98.28177 40848 ft 522 kts 96°
2026-05-03 22:28 44.74612 -98.18073 40848 ft 522 kts 96°
2026-05-03 22:29 44.73499 -98.07991 40847 ft 522 kts 96°
2026-05-03 22:29 44.72375 -97.97897 40846 ft 522 kts 96°
2026-05-03 22:30 44.71241 -97.87801 40847 ft 523 kts 96°
2026-05-03 22:30 44.70098 -97.77707 40851 ft 523 kts 96°
2026-05-03 22:31 44.68946 -97.67614 40849 ft 523 kts 96°
2026-05-03 22:31 44.67786 -97.57531 40850 ft 523 kts 97°
2026-05-03 22:32 44.66614 -97.47428 40848 ft 523 kts 97°
2026-05-03 22:32 44.65436 -97.37351 40850 ft 523 kts 97°
2026-05-03 22:33 44.64246 -97.27259 40852 ft 524 kts 97°
2026-05-03 22:33 44.63048 -97.17174 40852 ft 524 kts 97°
2026-05-03 22:34 44.61841 -97.07089 40857 ft 524 kts 97°
2026-05-03 22:34 44.60626 -96.97015 40861 ft 524 kts 97°
2026-05-03 22:35 44.59400 -96.86936 40858 ft 524 kts 97°
2026-05-03 22:35 44.58166 -96.76858 40854 ft 524 kts 97°
2026-05-03 22:36 44.57065 -96.67933 40851 ft 524 kts 97°
2026-05-03 22:36 44.55821 -96.57920 40842 ft 524 kts 97°
2026-05-03 22:37 44.54562 -96.47868 40837 ft 524 kts 97°
2026-05-03 22:37 44.53294 -96.37812 40836 ft 524 kts 97°
2026-05-03 22:38 44.52018 -96.27774 40823 ft 523 kts 97°
2026-05-03 22:38 44.51376 -96.22749 40602 ft 523 kts 97°
2026-05-03 22:38 44.50735 -96.17743 40359 ft 523 kts 97°
2026-05-03 22:38 44.50090 -96.12731 40114 ft 523 kts 97°
2026-05-03 22:39 44.49579 -96.07686 39876 ft 521 kts 91°
2026-05-03 22:39 44.49338 -96.02640 39635 ft 520 kts 90°
2026-05-03 22:39 44.49149 -95.97712 39178 ft 518 kts 89°
2026-05-03 22:39 44.48955 -95.92644 38561 ft 519 kts 89°
2026-05-03 22:40 44.48757 -95.87595 37804 ft 519 kts 89°
2026-05-03 22:40 44.48621 -95.84186 37343 ft 519 kts 89°
2026-05-03 22:40 44.48418 -95.79210 36678 ft 519 kts 89°
2026-05-03 22:40 44.48210 -95.74165 36003 ft 519 kts 89°
2026-05-03 22:41 44.47999 -95.69119 35308 ft 520 kts 89°
2026-05-03 22:41 44.47786 -95.64065 34595 ft 521 kts 88°
2026-05-03 22:41 44.47569 -95.58996 33790 ft 524 kts 88°
2026-05-03 22:41 44.47349 -95.53924 32876 ft 517 kts 88°
2026-05-03 22:42 44.47129 -95.48948 32050 ft 507 kts 88°
2026-05-03 22:42 44.46913 -95.44060 31223 ft 504 kts 88°
2026-05-03 22:42 44.46697 -95.39134 30370 ft 508 kts 88°
2026-05-03 22:42 44.46475 -95.34229 30102 ft 498 kts 88°
2026-05-03 22:43 44.46254 -95.29462 29986 ft 484 kts 88°
2026-05-03 22:43 44.46039 -95.24832 29877 ft 471 kts 88°
2026-05-03 22:43 44.45890 -95.20325 29699 ft 456 kts 83°
2026-05-03 22:43 44.46293 -95.16029 29287 ft 437 kts 67°
2026-05-03 22:44 44.47177 -95.11990 28778 ft 431 kts 64°
2026-05-03 22:44 44.48126 -95.08041 28326 ft 427 kts 64°
2026-05-03 22:44 44.49062 -95.04119 27887 ft 423 kts 64°
2026-05-03 22:44 44.49981 -95.00228 27448 ft 419 kts 64°
2026-05-03 22:45 44.50887 -94.96358 27002 ft 416 kts 65°
2026-05-03 22:45 44.51782 -94.92520 26571 ft 413 kts 65°
2026-05-03 22:45 44.52666 -94.88710 26136 ft 410 kts 65°
2026-05-03 22:45 44.53542 -94.84925 25706 ft 408 kts 65°
2026-05-03 22:46 44.54416 -94.81141 25273 ft 406 kts 65°
2026-05-03 22:46 44.55281 -94.77386 24824 ft 404 kts 66°
2026-05-03 22:46 44.56139 -94.73652 24399 ft 402 kts 66°
2026-05-03 22:46 44.56993 -94.69931 23954 ft 400 kts 66°
2026-05-03 22:47 44.57842 -94.66228 23526 ft 398 kts 66°
2026-05-03 22:47 44.58686 -94.62537 23029 ft 396 kts 67°
2026-05-03 22:47 44.59511 -94.58919 22583 ft 393 kts 67°
2026-05-03 22:47 44.60350 -94.55232 22138 ft 390 kts 67°
2026-05-03 22:48 44.61159 -94.51671 21707 ft 387 kts 67°
2026-05-03 22:48 44.61970 -94.48100 21278 ft 384 kts 67°
2026-05-03 22:48 44.62777 -94.44537 20846 ft 381 kts 67°
2026-05-03 22:48 44.63576 -94.41003 20410 ft 379 kts 67°
2026-05-03 22:49 44.64372 -94.37486 19966 ft 377 kts 67°
2026-05-03 22:49 44.65165 -94.33993 19544 ft 375 kts 67°
2026-05-03 22:49 44.65949 -94.30510 19103 ft 373 kts 67°
2026-05-03 22:49 44.66727 -94.27041 18672 ft 372 kts 67°
2026-05-03 22:50 44.67503 -94.23577 18206 ft 371 kts 67°
2026-05-03 22:50 44.68283 -94.20131 17752 ft 370 kts 67°
2026-05-03 22:50 44.69054 -94.16705 17444 ft 364 kts 68°
2026-05-03 22:50 44.69809 -94.13334 17079 ft 360 kts 68°
2026-05-03 22:51 44.70564 -94.09992 16673 ft 358 kts 68°
2026-05-03 22:51 44.71314 -94.06671 16250 ft 356 kts 68°
2026-05-03 22:51 44.72056 -94.03351 15832 ft 355 kts 68°
2026-05-03 22:51 44.72792 -94.00055 15413 ft 353 kts 69°
2026-05-03 22:52 44.73527 -93.96763 14987 ft 352 kts 69°
2026-05-03 22:52 44.74261 -93.93474 14564 ft 352 kts 69°
2026-05-03 22:52 44.74990 -93.90204 14152 ft 350 kts 70°
2026-05-03 22:52 44.75722 -93.86931 13756 ft 349 kts 70°
2026-05-03 22:53 44.76436 -93.83737 13627 ft 336 kts 70°
2026-05-03 22:53 44.77120 -93.80647 13503 ft 324 kts 70°
2026-05-03 22:53 44.77781 -93.77665 13292 ft 316 kts 70°
2026-05-03 22:53 44.78431 -93.74741 12917 ft 314 kts 70°
2026-05-03 22:54 44.79083 -93.71814 12596 ft 311 kts 70°
2026-05-03 22:54 44.79733 -93.68911 12258 ft 310 kts 70°
2026-05-03 22:54 44.80370 -93.66028 11937 ft 308 kts 70°
2026-05-03 22:54 44.81004 -93.63152 11618 ft 306 kts 70°
2026-05-03 22:55 44.81636 -93.60294 11300 ft 305 kts 70°
2026-05-03 22:55 44.82268 -93.57447 10975 ft 305 kts 71°
2026-05-03 22:55 44.82895 -93.54592 10644 ft 304 kts 71°
2026-05-03 22:55 44.83518 -93.51752 10343 ft 302 kts 71°
2026-05-03 22:56 44.84104 -93.49073 10041 ft 301 kts 71°
2026-05-03 22:56 44.84699 -93.46317 9734 ft 301 kts 72°
2026-05-03 22:56 44.84968 -93.43365 9399 ft 304 kts 94°
2026-05-03 22:56 44.84351 -93.40559 9221 ft 292 kts 119°
2026-05-03 22:57 44.83342 -93.38147 9104 ft 280 kts 123°
2026-05-03 22:57 44.82329 -93.35876 9000 ft 269 kts 123°
2026-05-03 22:57 44.81354 -93.33681 8817 ft 261 kts 123°
2026-05-03 22:57 44.80415 -93.31548 8575 ft 258 kts 123°
2026-05-03 22:58 44.79478 -93.29410 8328 ft 255 kts 123°
2026-05-03 22:58 44.78554 -93.27296 8070 ft 253 kts 123°
2026-05-03 22:58 44.77635 -93.25184 7921 ft 253 kts 123°
2026-05-03 22:58 44.76711 -93.23066 7913 ft 254 kts 123°
2026-05-03 22:59 44.75787 -93.20952 7913 ft 254 kts 123°
2026-05-03 22:59 44.74871 -93.18838 7849 ft 254 kts 122°
2026-05-03 22:59 44.73975 -93.16702 7597 ft 253 kts 122°
2026-05-03 22:59 44.73088 -93.14576 7354 ft 252 kts 122°
2026-05-03 23:00 44.72199 -93.12453 7096 ft 251 kts 122°
2026-05-03 23:00 44.71311 -93.10338 6838 ft 251 kts 123°
2026-05-03 23:00 44.70421 -93.08221 6517 ft 252 kts 123°
2026-05-03 23:00 44.69522 -93.06090 6178 ft 254 kts 123°
2026-05-03 23:01 44.68619 -93.03947 5831 ft 254 kts 123°
2026-05-03 23:01 44.67733 -93.01850 5507 ft 246 kts 123°
2026-05-03 23:01 44.66864 -92.99795 5171 ft 245 kts 124°
2026-05-03 23:01 44.66004 -92.97736 4846 ft 245 kts 122°
2026-05-03 23:02 44.65421 -92.95448 4503 ft 253 kts 100°
2026-05-03 23:02 44.65599 -92.93021 4295 ft 248 kts 66°
2026-05-03 23:02 44.66647 -92.91228 4176 ft 235 kts 28°
2026-05-03 23:02 44.68167 -92.90655 4056 ft 225 kts 355°
2026-05-03 23:03 44.69697 -92.90985 3959 ft 222 kts 340°
2026-05-03 23:03 44.71153 -92.91693 3854 ft 220 kts 334°
2026-05-03 23:03 44.72575 -92.92492 3798 ft 221 kts 335°
2026-05-03 23:03 44.74019 -92.93255 3698 ft 221 kts 336°
2026-05-03 23:04 44.75450 -92.94041 3634 ft 220 kts 328°
2026-05-03 23:04 44.76578 -92.95369 3541 ft 213 kts 305°
2026-05-03 23:04 44.77392 -92.97125 3404 ft 211 kts 297°
2026-05-03 23:04 44.78132 -92.98876 3193 ft 211 kts 298°
2026-05-03 23:05 44.78878 -93.00618 3012 ft 210 kts 298°
2026-05-03 23:05 44.79623 -93.02323 2978 ft 198 kts 298°
2026-05-03 23:05 44.80322 -93.03902 3021 ft 182 kts 298°
2026-05-03 23:05 44.80977 -93.05392 3008 ft 179 kts 298°
2026-05-03 23:06 44.81636 -93.06918 2862 ft 181 kts 297°
2026-05-03 23:06 44.82279 -93.08413 2622 ft 181 kts 298°
2026-05-03 23:06 44.82930 -93.09912 2384 ft 179 kts 297°
2026-05-03 23:06 44.83573 -93.11393 2139 ft 173 kts 297°
2026-05-03 23:07 44.84175 -93.12787 1929 ft 161 kts 297°
2026-05-03 23:07 44.84745 -93.14103 1716 ft 153 kts 297°
2026-05-03 23:07 44.85286 -93.15350 1563 ft 147 kts 297°
2026-05-03 23:07 44.85801 -93.16550 1394 ft 141 kts 298°
2026-05-03 23:08 44.86299 -93.17701 1278 ft 134 kts 299°
2026-05-03 23:08 44.86778 -93.18819 1084 ft 133 kts 300°
2026-05-03 23:08 44.87263 -93.19906 893 ft 128 kts 299°
2026-05-03 23:08 44.87703 -93.20929 824 ft 110 kts 300°
2026-05-03 23:09 44.88034 -93.21693 830 ft 73 kts 301°
2026-05-03 23:09 44.88240 -93.22172 832 ft 46 kts 301°
2026-05-03 23:09 44.88312 -93.22342 830 ft 12 kts 301°
2026-05-03 23:09 44.88376 -93.22434 830 ft 14 kts 345°
2026-05-03 23:10 44.88435 -93.22412 829 ft 1 kts 36°
2026-05-03 23:10 44.88439 -93.22398 830 ft 4 kts 69°
2026-05-03 23:10 44.88430 -93.22318 830 ft 12 kts 113°
2026-05-03 23:10 44.88386 -93.22212 831 ft 14 kts 121°
2026-05-03 23:11 44.88332 -93.22084 829 ft 17 kts 121°
2026-05-03 23:11 44.88266 -93.21929 832 ft 19 kts 121°
2026-05-03 23:11 44.88193 -93.21760 830 ft 22 kts 122°
2026-05-03 23:11 44.88112 -93.21576 831 ft 21 kts 122°
2026-05-03 23:12 44.88050 -93.21434 831 ft 7 kts 121°
2026-05-03 23:12 44.88020 -93.21366 831 ft 9 kts 121°
2026-05-03 23:12 44.88006 -93.21278 831 ft 7 kts 71°
2026-05-03 23:12 44.88050 -93.21247 831 ft 8 kts 13°
2026-05-03 23:13 44.88103 -93.21230 830 ft 6 kts 13°
2026-05-03 23:13 44.88117 -93.21226 831 ft 1 kts 13°
2026-05-03 23:13 44.88126 -93.21223 831 ft 1 kts 13°
2026-05-03 23:13 44.88128 -93.21223 831 ft 0 kts 13°